Weather observations for the past three days for
Stanton Airfield
Imperial (Metric)
Date Time (cdt) Wind (mph) Vis. (mi.) Weather Sky Cond. Temperature (ºF) Relative Humidity Wind Chill (°F) Heat Index (°F) Pressure Precipitation (in)
Air Dwpt 6 hour altimeter (in) sea level (mb) 1 hr 3 hr 6 hr
Max. Min.
13 01:55 S 7 10.00 Fair CLR 71.6 66.2 83% 30.04 0.0
13 01:35 S 7 10.00 Partly Cloudy SCT050 71.8 65.8 82% 30.05 0.0
13 01:15 SE 6 10.00 Mostly Cloudy BKN050 71.6 65.7 82% 30.06 0.0
13 00:55 S 5 10.00 Fair CLR 71.4 65.5 82.4 69.8 82% 30.06 0.0
13 00:35 S 5 10.00 Fair CLR 72 65.7 81% 30.06 0.0
13 00:15 S 6 10.00 Fair CLR 72.3 65.7 80% 30.05 0.0
12 23:55 S 5 10.00 Fair CLR 72 65.7 81% 30.06 0.0
12 23:35 S 6 10.00 Fair CLR 72.1 65.7 80% 30.06 0.0
12 23:15 Calm 10.00 Fair CLR 70.3 65.5 85% 30.05 0.0
12 22:55 Calm 10.00 Fair CLR 73 65.7 78% 30.05 0.0
12 22:35 S 5 10.00 Fair CLR 73.4 65.7 77% 30.05 0.0
12 22:15 SE 5 10.00 Fair CLR 73.9 65.3 75% 30.05 0.0
12 21:55 S 5 10.00 Fair CLR 74.5 65.5 74% 30.05 0.0
12 21:35 SE 6 10.00 Fair CLR 75.2 65.5 72% 77 30.04 0.0
12 21:15 SE 5 10.00 Fair CLR 75.9 65.5 70% 78 30.04 0.0
12 20:55 SE 6 10.00 Fair CLR 76.1 65.8 71% 78 30.04 0.0
12 20:35 SE 3 10.00 Fair CLR 76.8 66.7 71% 79 30.05 0.0
12 20:15 S 3 10.00 Fair CLR 78.3 66 66% 80 30.05 0.0
12 19:55 S 6 10.00 Fair CLR 79.7 65.3 62% 82 30.04 0.0
12 19:35 S 9 10.00 Fair CLR 81 64.6 58% 83 30.04 0.0
12 19:15 S 9 10.00 Partly Cloudy SCT047 81.5 64.6 57% 83 30.04 0.0
12 18:55 S 7 10.00 Fair CLR 82.4 65.5 84.9 81.9 57% 84 30.04 0.0
12 18:35 S 9 10.00 Partly Cloudy SCT050 83.3 64 52% 85 30.04 0.0
12 18:15 S 7 10.00 Partly Cloudy SCT050 SCT065 83.3 64.4 53% 85 30.04 0.0
12 17:55 S 9 10.00 Partly Cloudy SCT050 84.2 63.9 51% 85 30.04 0.0
12 17:35 S 9 10.00 Partly Cloudy SCT050 84.4 63.5 50% 86 30.04 0.0
12 17:15 S 7 10.00 Partly Cloudy SCT049 SCT060 83.5 62.6 49% 84 30.04 0.0
12 16:55 SE 8 10.00 Partly Cloudy SCT049 SCT060 84 63 49% 85 30.04 0.0
12 16:35 SE 9 10.00 Partly Cloudy SCT050 SCT055 84.2 63.3 50% 85 30.04 0.0
12 16:15 S 6 10.00 Partly Cloudy SCT050 SCT055 84.6 63.9 50% 86 30.04 0.0
12 15:55 S 10 G 16 10.00 Fair CLR 84.4 63.1 49% 85 30.04 0.0
12 15:35 S 8 10.00 Fair CLR 84.2 62.6 48% 85 30.04 0.0
12 15:15 S 8 10.00 Fair CLR 84.2 62.6 48% 85 30.05 0.0
12 14:55 S 8 10.00 Fair CLR 83.8 62.6 49% 85 30.06 0.0
12 14:36 S 8 10.00 Fair CLR 82.4 62.6 51% 83 30.06 0.0
12 14:15 S 9 10.00 Fair CLR 83.1 62.1 49% 84 30.07 0.0
12 13:55 S 10 10.00 Fair CLR 82.4 62.6 51% 83 30.07 0.0
12 13:35 S 9 G 17 10.00 Fair CLR 82.4 62.6 51% 83 30.07 0.0
12 13:15 S 10 10.00 Fair CLR 82.2 63 52% 83 30.08 0.0
12 12:56 S 9 G 18 10.00 Fair CLR 82.4 62.6 51% 83 30.08 0.0
12 12:35 S 12 G 18 10.00 Fair CLR 80.6 62.6 54% 82 30.08 0.0
12 12:15 S 9 10.00 Fair CLR 81 62.2 53% 82 30.09 0.0
12 11:55 S 7 10.00 Fair CLR 80.6 62.6 54% 82 30.1 0.0
12 11:35 S 10 10.00 Fair CLR 80.6 62.6 54% 82 30.1 0.0
12 11:15 S 8 10.00 Fair CLR 79.7 62.4 56% 81 30.1 0.0
12 10:56 S 9 10.00 Fair CLR 79 63.9 60% 81 30.1 0.0
12 10:35 S 10 10.00 Fair CLR 78.8 64.4 61% 81 30.11 0.0
12 10:15 SW 8 10.00 Fair CLR 77 64.4 65% 79 30.11 0.0
12 09:55 S 7 10.00 Fair CLR 77.4 64.2 64% 79 30.11 0.0
12 09:35 S 6 10.00 Fair CLR 77 66.2 69% 79 30.12 0.0
12 09:15 S 6 10.00 Fair CLR 75.7 65.7 71% 77 30.11 0.0
12 08:55 S 6 10.00 Fair CLR 74.5 65.5 74% 30.11 0.0
12 08:35 S 3 10.00 Fair CLR 73.2 66.4 79% 30.11 0.0
12 08:15 S 5 10.00 Fair CLR 71.6 66.2 83% 30.11 0.0
12 07:55 S 6 10.00 Fair CLR 70.3 65.3 84% 30.1 0.0
12 07:35 S 5 10.00 Fair CLR 69.3 64.9 86% 30.1 0.0
12 07:15 S 3 10.00 Fair CLR 68.9 64.9 87% 30.09 0.0
12 06:55 Calm 10.00 Fair CLR 67.6 64.6 67.6 65.3 90% 30.09 0.0
12 06:35 Calm 7.00 Fair CLR 65.7 63.7 93% 30.08 0.0
12 06:15 Calm 10.00 Fair CLR 65.7 63.5 93% 30.08 0.0
12 05:55 Calm 10.00 Fair CLR 66.4 63.7 91% 30.07 0.0
12 05:35 S 5 10.00 Fair CLR 66.4 63.5 91% 30.07 0.0
12 05:15 S 3 10.00 Fair CLR 67.1 63.9 89% 30.06 0.0
12 04:55 S 5 10.00 Fair CLR 67.3 63.9 89% 30.06 0.0
12 04:35 S 3 10.00 Fair CLR 66.4 63.9 92% 30.06 0.0
12 04:15 S 5 10.00 Fair CLR 65.8 63.7 93% 30.06 0.0
12 03:55 Calm 10.00 Fair CLR 65.5 63.5 93% 30.06 0.0
12 03:35 S 3 10.00 Fair CLR 65.7 63.7 93% 30.05 0.0
12 03:15 Calm 10.00 Fair CLR 66.2 63.7 92% 30.06 0.0
12 02:55 S 5 10.00 Fair CLR 66.2 63.7 92% 30.05 0.0
12 02:35 Calm 10.00 Fair CLR 65.8 63.5 92% 30.06 0.0
12 02:15 Calm 10.00 Fair CLR 65.7 63.5 93% 30.06 0.0
12 01:55 Calm 10.00 Fair CLR 66.6 64.4 93% 30.07 0.0
12 01:35 Calm 10.00 Fair CLR 67.3 64.8 92% 30.07 0.0
12 01:15 Calm 10.00 Partly Cloudy SCT055 67.1 64.6 92% 30.07 0.0
12 00:55 Calm 10.00 Partly Cloudy SCT055 67.1 65.3 83.3 67.1 94% 30.07 0.0
12 00:35 Calm 10.00 Fair CLR 67.3 65.3 93% 30.07 0.0
12 00:15 Calm 10.00 Fair CLR 68 65.3 91% 30.07 0.0
11 23:55 Calm 10.00 Fair CLR 68.2 65.7 92% 30.06 0.0
11 23:35 Calm 10.00 Fair CLR 68.2 65.7 92% 30.06 0.0
11 23:15 Calm 10.00 Fair CLR 68.4 66.2 93% 30.06 0.0
11 22:55 Calm 10.00 Fair CLR 69.1 66.4 91% 30.06 0.0
11 22:35 S 3 10.00 Fair CLR 68.9 66.7 93% 30.05 0.0
11 22:15 Calm 10.00 Fair CLR 70.7 67.5 90% 30.05 0.0
11 21:55 Calm 10.00 Fair CLR 70.7 68.4 92% 30.05 0.0
11 21:35 Calm 10.00 Fair CLR 71.8 68.4 89% 30.05 0.0
11 21:15 Calm 10.00 Fair CLR 73 68.7 86% 30.04 0.0
11 20:55 Calm 10.00 Fair CLR 74.3 70.9 89% 30.04 0.0
11 20:35 Calm 10.00 Fair CLR 76.1 69.6 80% 77 30.04 0.0
11 20:15 Calm 10.00 Fair CLR 77.9 68.7 73% 80 30.04 0.0
11 19:55 Calm 10.00 Fair CLR 80.8 62.6 54% 82 30.04 0.0
11 19:35 Calm 10.00 Fair CLR 81.7 63.3 54% 83 30.04 0.0
11 19:15 Calm 10.00 Fair CLR 82.6 64.2 54% 84 30.04 0.0
11 18:55 Calm 10.00 Fair CLR 83.3 62.1 84.9 81.7 49% 84 30.04 0.0
11 18:35 Calm 10.00 Fair CLR 84.2 59 43% 84 30.04 0.0
11 18:15 Calm 10.00 Fair CLR 84.2 60.8 45% 84 30.04 0.0
11 17:35 Calm 10.00 Fair CLR 84.4 59.5 43% 84 30.05 0.0
11 17:15 Calm 10.00 Fair CLR 84.4 60.4 45% 84 30.05 0.0
11 16:55 Calm 10.00 Fair CLR 84.2 59 43% 84 30.05 0.0
11 16:37 Calm 10.00 Fair CLR 84.2 59 43% 84 30.06 0.0
11 16:15 Calm 10.00 Fair CLR 84.2 62.6 48% 85 30.06 0.0
11 15:55 Calm 10.00 Fair CLR 84.2 62.6 48% 85 30.06 0.0
11 15:36 Calm 10.00 Fair CLR 84.2 60.8 45% 84 30.07 0.0
11 15:15 Calm 10.00 Fair CLR 84.4 61 45% 85 30.07 0.0
11 14:56 NE 3 10.00 Fair CLR 84.2 64.4 51% 86 30.07 0.0
11 14:35 NE 5 10.00 Fair CLR 83.5 63 50% 84 30.07 0.0
11 14:15 Calm 10.00 Fair CLR 83.3 61.3 48% 84 30.08 0.0
11 13:55 Calm 10.00 Fair CLR 82.8 61.5 49% 83 30.08 0.0
11 13:35 Calm 10.00 Fair CLR 82.4 59 45% 82 30.09 0.0
11 13:16 Calm 10.00 Fair CLR 82.4 60.8 48% 83 30.1 0.0
11 12:58 N 3 10.00 Fair CLR 81.7 62.6 52% 83 30.1 0.0
11 12:35 N 3 10.00 Fair CLR 81.3 63.9 55% 83 30.1 0.0
11 12:15 Calm 10.00 Fair CLR 81.1 62.6 53% 82 30.1 0.0
11 11:55 Calm 10.00 Fair CLR 80.6 65.1 59% 82 30.1 0.0
11 11:35 NE 3 10.00 Fair CLR 79.5 65.5 62% 81 30.1 0.0
11 11:16 Calm 10.00 Fair CLR 78.8 66.2 65% 81 30.09 0.0
11 10:57 Calm 10.00 Fair CLR 77 66.2 69% 79 30.09 0.0
11 10:35 Calm 10.00 Fair CLR 77 66.2 69% 79 30.09 0.0
11 10:15 Calm 10.00 Fair CLR 75.7 66.7 74% 77 30.09 0.0
11 09:55 Calm 10.00 Fair CLR 74.3 67.3 79% 30.09 0.0
11 09:35 Calm 10.00 Fair CLR 72.9 66.6 81% 30.09 0.0
11 09:15 Calm 10.00 Fair CLR 71.4 66.9 86% 30.09 0.0
11 08:55 Calm 7.00 Fair CLR 70 66.2 88% 30.09 0.0
11 08:36 Calm 7.00 Fair CLR 67.6 65.8 94% 30.09 0.0
11 08:15 Calm 7.00 Fair CLR 66.2 65.3 97% 30.09 0.0
11 07:57 Calm 5.00 Fog/Mist CLR 65.3 64.4 97% 30.09 0.0
11 07:35 Calm 5.00 Fog/Mist CLR 64 63.1 97% 30.1 0.0
11 07:15 Calm 5.00 Fog/Mist CLR 62.8 61.9 97% 30.09 0.0
11 06:55 Calm 5.00 Fog/Mist CLR 61.3 60.4 63.9 59.2 97% 30.09 0.0
11 06:35 SE 3 1.75 Fog/Mist VV007 60.4 59.5 97% 30.08 0.0
11 06:15 Calm 2.00 Fog/Mist CLR 59.5 59 98% 30.07 0.0
11 05:55 Calm 1.00 Fog/Mist VV007 59.5 59 98% 30.07 0.0
11 05:35 Calm 2.50 Fog/Mist CLR 59.9 59 97% 30.06 0.0
11 05:15 Calm 1.00 Fog/Mist VV007 59.5 59 98% 30.06 0.0
11 04:55 Calm 2.50 Fog/Mist CLR 59.5 59 98% 30.05 0.0
11 04:35 Calm 1.00 Fog/Mist VV007 60.1 59.2 97% 30.05 0.0
11 04:15 Calm 1.00 Fog/Mist VV007 60.4 59.7 97% 30.05 0.0
11 03:55 Calm 0.50 Fog VV005 61 60.1 97% 30.05 0.0
11 03:15 Calm 0.25 Fog VV002 61.3 60.4 97% 30.04 0.0
11 02:55 Calm 1.50 Fog/Mist VV007 61.9 61 97% 30.04 0.0
11 02:35 Calm 1.00 Fog/Mist VV007 61.9 61 97% 30.04 0.0
11 02:15 Calm 0.75 Fog/Mist VV005 62.8 61.9 97% 30.04 0.0
11 01:55 Calm 0.75 Fog/Mist VV005 63 62.1 97% 30.04 0.0
11 01:35 Calm 0.75 Fog/Mist VV005 63 62.1 97% 30.04 0.0
11 01:15 Calm 1.50 Fog/Mist VV007 63.9 63 97% 30.05 0.0
11 00:55 Calm 4.00 Fog/Mist CLR 63 62.1 72.1 63 97% 30.05 0.0
11 00:35 Calm 2.00 Fog/Mist CLR 63.7 62.8 97% 30.05 0.0
11 00:15 Calm 3.00 Fog/Mist CLR 63.5 62.4 96% 30.04 0.0
10 23:55 Calm 4.00 Fog/Mist CLR 64.8 63.7 96% 30.04 0.0
10 23:35 Calm 4.00 Fog/Mist CLR 65.3 64.2 96% 30.04 0.0
10 23:15 Calm 5.00 Fog/Mist CLR 65.5 64.4 96% 30.04 0.0
10 22:55 S 3 7.00 Fair CLR 66.2 64.9 96% 30.04 0.0
10 22:35 Calm 7.00 Fair CLR 67.1 65.5 95% 30.03 0.0
10 22:15 Calm 10.00 Fair CLR 68 66.2 94% 30.03 0.0
10 21:55 Calm 10.00 Partly Cloudy SCT120 68.4 66.6 94% 30.02 0.0
10 21:35 Calm 10.00 Overcast OVC120 68.9 67.1 94% 30.01 0.0
10 21:15 Calm 10.00 Mostly Cloudy SCT085 BKN110 68.7 66.6 93% 30.01 0.0
10 20:55 Calm 10.00 Mostly Cloudy BKN085 69.8 66.9 91% 30.01 0.0
10 20:35 Calm 10.00 Partly Cloudy SCT060 SCT095 70.3 66.2 87% 30.01 0.0
10 20:15 NE 5 10.00 Partly Cloudy SCT060 SCT090 71.1 68 90% 30.02 0.0
10 19:55 Calm 10.00 Fair CLR 71.4 67.8 88% 30.01 0.0
10 19:35 Calm 10.00 Fair CLR 71.4 67.3 87% 30.01 0.0
10 19:15 Calm 10.00 Fair CLR 72 65.3 80% 30.01 0.0
10 18:55 Calm 10.00 Fair CLR 71.8 66.2 80.6 65.1 83% 30 0.0 0.71
10 18:35 Calm 10.00 Thunderstorm in Vicinity CLR 71.6 66.6 84% 29.99 0.0
10 18:15 Calm 10.00 Partly Cloudy SCT110 71.4 64 78% 29.99 0.0
10 17:55 NW 5 10.00 Partly Cloudy SCT110 70.9 62.4 75% 29.99 0.0 0.16
10 17:35 NW 3 10.00 Mostly Cloudy SCT022 SCT030 BKN065 70 62.6 78% 29.99 0.0 0.16
10 17:15 NW 10 G 17 5.00 Thunderstorm Heavy Rain SCT004 BKN023 OVC043 65.8 61.2 85% 30.01 0.0 0.14
10 16:55 NW 3 G 38 0.75 Thunderstorm Heavy Rain BKN004 BKN029 OVC035 65.1 60.6 85% 30.01 0.0 0.49
10 16:35 NW 16 G 23 10.00 Thunderstorm in Vicinity SCT030 BKN050 BKN060 77.5 65.1 66% 79 29.99 0.0
10 16:15 W 12 10.00 Partly Cloudy SCT120 79.5 66 63% 82 29.98 0.0
10 15:55 NW 5 10.00 Fair CLR 80.4 65.1 60% 82 29.98 0.0
10 15:35 NW 5 10.00 Fair CLR 79.2 65.3 63% 81 29.97 0.0
10 15:17 W 7 10.00 Fair CLR 78.8 64.4 61% 81 29.98 0.0
10 14:57 NW 5 10.00 Fair CLR 77 66.2 69% 79 29.97 0.0
10 14:35 W 6 10.00 Fair CLR 77 66.9 71% 79 29.97 0.0
10 14:18 W 7 10.00 Fair CLR 76.1 65.8 71% 78 29.98 0.0
10 13:55 W 8 10.00 Fair CLR 75.7 65.8 71% 77 29.98 0.0
10 13:35 W 8 10.00 Fair CLR 73.6 64.6 74% 29.99 0.0
10 13:15 W 10 10.00 Fair CLR 73 64 74% 29.99 0.0
10 12:55 W 10 10.00 Fair CLR 72.9 64.2 76.1 65.3 74% 29.99 0.0
10 12:35 W 13 G 18 10.00 Fair CLR 71.6 64.4 78% 29.99 0.0
10 12:15 W 15 10.00 Fair CLR 72.3 63.9 75% 29.99 0.0
10 11:55 W 14 10.00 Fair CLR 73.4 64.4 74% 29.99 0.0
10 11:37 W 6 10.00 Fair CLR 75.2 66.2 74% 77 29.99 0.0
10 11:15 W 3 10.00 Thunderstorm in Vicinity SCT090 74.5 66 75% 29.98 0.0
10 10:55 W 3 10.00 Mostly Cloudy BKN090 BKN110 75.2 66.2 74% 77 29.97 0.0
10 10:36 W 3 10.00 Mostly Cloudy BKN080 74.5 65.7 74% 29.98 0.0
10 10:18 W 5 10.00 Mostly Cloudy BKN070 74.5 64.8 72% 29.97 0.0
10 09:55 Calm 10.00 Partly Cloudy SCT060 74.3 64.8 72% 29.96 0.0
10 09:35 N 3 10.00 Thunderstorm in Vicinity SCT060 SCT095 74.5 65.1 73% 29.96 0.0
10 09:17 N 3 10.00 Thunderstorm in Vicinity SCT060 BKN070 BKN095 73.2 65.3 76% 29.96 0.0
10 08:58 Calm 10.00 Partly Cloudy SCT070 SCT095 72.9 64.9 76% 29.96 0.0
10 08:35 Calm 7.00 Fair CLR 71.6 66.2 83% 29.94 0.0
10 08:17 Calm 4.00 Fog/Mist CLR 69.8 68 94% 29.94 0.0
10 07:55 Calm 4.00 Fog/Mist CLR 68 66.2 94% 29.94 0.0
10 07:35 Calm 4.00 Fog/Mist SCT090 67.1 65.3 94% 29.94 0.0
10 07:15 Calm 4.00 Fog/Mist SCT050 SCT065 BKN080 66.2 64.4 94% 29.94 0.0
10 06:55 S 3 3.00 Fog/Mist BKN060 BKN080 64.9 64 67.3 63 97% 29.94 0.0
10 06:35 Calm 3.00 Fog/Mist CLR 64 63.1 97% 29.94 0.0
10 06:15 SW 5 2.50 Fog/Mist CLR 63.1 62.2 97% 29.93 0.0
10 05:55 E 3 2.00 Fog/Mist CLR 63.3 62.4 97% 29.93 0.0
10 05:35 Calm 2.50 Fog/Mist CLR 63.5 62.6 97% 29.92 0.0
10 05:15 Calm 3.00 Fog/Mist SCT065 64 63.1 97% 29.91 0.0
10 04:55 Calm 4.00 Thunderstorm in Vicinity Fog/Mist SCT060 64.4 63.5 97% 29.92 0.0
10 04:35 Calm 4.00 Fog/Mist CLR 64.6 63.5 96% 29.91 0.0
10 04:15 Calm 5.00 Fog/Mist CLR 65.1 63.9 96% 29.91 0.0
10 03:55 Calm 4.00 Fog/Mist SCT110 65.1 64 96% 29.91 0.0
10 03:35 Calm 5.00 Fog/Mist CLR 65.3 64 96% 29.91 0.0
10 03:15 Calm 5.00 Fog/Mist CLR 66.6 65.3 96% 29.91 0.0
10 02:55 Calm 7.00 Partly Cloudy SCT120 67.1 65.5 95% 29.91 0.0
10 02:35 Calm 7.00 Partly Cloudy SCT110 67.3 65.7 95% 29.91 0.0
10 02:15 Calm 7.00 Mostly Cloudy BKN110 67.1 65.5 95% 29.9 0.0
Date Time (cdt) Wind (mph) Vis. (mi.) Weather Sky Cond. Air Dwpt Max. Min. Relative Humidity Wind Chill (°F) Heat Index (°F) altimeter (in) sea level (mb) 1 hr 3 hr 6 hr
6 hour
Temperature (ºF) Pressure Precipitation (in)